EW7556 Weather Reports


time (UTC)temp
F
wind
direction
speed
knots
gust
knots
rain 1hr
in
rain 24hr
in
rain mn
in
humidity
%
barometer
mb
20260506004532 58 271 3.5 12.2 0.00 0.00 0.00 79 1015.3
20260506003033 57 200 2.6 10.4 0.00 0.00 0.00 81 1015.3
20260506001542 57 196 4.3 11.3 0.00 0.00 0.00 81 1015.3
20260506000105 57 186 6.1 13.0 0.00 0.00 0.00 80 1015.5
20260505234537 58 262 2.6 12.2 0.00 0.00 0.00 81 1015.7
20260505233027 58 215 4.3 10.4 0.00 0.00 0.00 80 1015.8
20260505231529 58 157 3.5 8.7 0.00 0.00 0.00 80 1015.9
20260505230037 58 192 4.3 8.7 0.00 0.00 0.00 79 1016.0
20260505224502 59 212 4.3 8.7 0.00 0.00 0.00 79 1016.1
20260505223005 60 176 4.3 7.8 0.00 0.00 0.00 77 1016.1
20260505221521 60 224 2.6 6.1 0.00 0.00 0.00 80 1016.3
20260505220003 59 226 1.7 5.2 0.00 0.00 0.00 81 1016.4
20260505214509 59 229 2.6 7.0 0.00 0.00 0.00 81 1016.4
20260505213008 58 191 2.6 7.0 0.00 0.00 0.00 83 1016.5
20260505211521 58 198 4.3 7.0 0.00 0.00 0.00 80 1016.5
20260505210118 59 197 2.6 5.2 0.00 0.00 0.00 83 1016.5
20260505204509 58 196 1.7 5.2 0.00 0.00 0.00 84 1016.6
20260505203014 58 202 0.0 3.5 0.00 0.00 0.00 84 1016.6
20260505201533 57 179 0.9 3.5 0.00 0.00 0.00 84 1016.7
20260505200037 57 214 0.9 3.5 0.00 0.00 0.00 83 1016.7
20260505194531 56 252 0.0 4.3 0.00 0.00 0.00 85 1016.6
20260505193027 56 244 1.7 4.3 0.00 0.00 0.00 84 1016.6
20260505191530 55 220 0.0 2.6 0.00 0.00 0.00 87 1016.6
20260505190038 55 200 1.7 2.6 0.00 0.00 0.00 88 1016.6
20260505184524 54 193 0.0 3.5 0.00 0.00 0.00 88 1016.6
20260505183022 54 222 0.0 1.7 0.00 0.00 0.00 89 1016.6
20260505181525 54 238 1.7 3.5 0.00 0.00 0.00 89 1016.6
20260505180007 54 261 0.0 2.6 0.00 0.00 0.00 90 1016.5
20260505174511 53 197 0.0 1.7 0.00 0.00 0.00 91 1016.3
20260505173014 53 238 0.0 1.7 0.00 0.00 0.00 91 1016.2
20260505171517 53 264 0.0 1.7 0.00 0.00 0.00 91 1016.2
20260505170011 52 240 0.0 1.7 0.00 0.00 0.00 92 1016.2
20260505164515 52 237 0.9 3.5 0.00 0.00 0.00 92 1016.2
20260505163020 52 245 0.0 3.5 0.00 0.00 0.00 92 1016.2
20260505161532 52 227 0.0 2.6 0.00 0.00 0.00 92 1016.1
20260505153031 51 217 0.0 3.5 0.00 0.00 0.00 92 1015.9
20260505151535 51 210 0.0 1.7 0.00 0.00 0.00 92 1015.7
20260505124542 49 181 0.0 0.0 0.00 0.00 0.00 91 1014.2
20260505123044 49 181 0.0 0.0 0.00 0.00 0.00 91 1014.2
20260505121604 49 181 0.0 0.0 0.00 0.00 0.00 91 1014.0
20260505120037 48 181 0.0 0.0 0.00 0.00 0.00 91 1013.9
20260505114523 48 181 0.0 0.0 0.00 0.00 0.00 91 1013.7
20260505113029 47 181 0.0 0.0 0.00 0.00 0.00 91 1013.6
20260505111537 46 181 0.0 0.0 0.00 0.00 0.00 91 1013.4
20260505101540 44 207 0.0 0.0 0.00 0.00 0.00 92 1012.9
20260505100049 44 207 0.0 0.0 0.00 0.00 0.00 92 1012.9
20260505094522 44 207 0.0 0.0 0.00 0.00 0.00 92 1012.9
20260505093029 44 207 0.0 0.0 0.00 0.00 0.00 92 1012.8
20260505091535 44 207 0.0 0.0 0.00 0.00 0.00 92 1012.7
20260505090014 45 207 0.0 0.0 0.00 0.00 0.00 92 1012.6
20260505084522 45 207 0.0 0.0 0.00 0.00 0.00 92 1012.6
20260505083033 45 207 0.0 0.0 0.00 0.00 0.00 91 1012.5
20260505081529 46 207 0.0 0.0 0.00 0.00 0.00 91 1012.4
20260505080008 47 207 0.0 0.0 0.00 0.00 0.00 91 1012.3
20260505074510 48 207 0.0 0.0 0.00 0.00 0.00 91 1012.2
20260505073012 49 207 0.0 0.9 0.00 0.00 0.00 91 1012.0
20260505071522 50 207 0.0 3.5 0.00 0.00 0.00 91 1011.9
20260505070121 50 227 0.9 5.2 0.00 0.00 0.00 91 1011.7
20260505064503 50 213 0.9 5.2 0.00 0.00 0.00 91 1011.5
20260505063028 51 214 1.7 5.2 0.00 0.00 0.00 90 1011.4
20260505061524 51 197 0.9 7.8 0.00 0.00 0.00 90 1011.3
20260505060005 51 212 0.9 5.2 0.00 0.00 0.00 90 1011.1
20260505054508 51 244 0.9 5.2 0.00 0.00 0.00 90 1010.9
20260505053011 51 207 4.3 8.7 0.00 0.00 0.00 90 1010.8
20260505051531 51 198 3.5 10.4 0.00 0.00 0.00 90 1010.7
20260505041512 52 231 2.6 10.4 0.00 0.00 0.00 88 1010.1
20260505040120 53 271 5.2 12.2 0.00 0.00 0.00 87 1010.1
20260505034603 53 224 4.3 7.0 0.00 0.00 0.00 85 1010.0
20260505033103 54 265 4.3 10.4 0.00 0.00 0.00 84 1009.8
20260505031511 55 220 4.3 12.2 0.00 0.00 0.00 82 1009.7
20260505030111 56 220 3.5 11.3 0.00 0.00 0.00 80 1009.6
20260505024617 57 217 2.6 7.8 0.00 0.00 0.00 77 1009.5
20260505023118 58 237 4.3 9.6 0.00 0.00 0.00 75 1009.4
20260505021503 61 206 4.3 8.7 0.00 0.00 0.00 69 1009.5
20260505020117 61 213 3.5 7.8 0.00 0.00 0.00 69 1009.6
20260505014600 61 231 2.6 9.6 0.00 0.00 0.00 69 1009.8
20260505013103 62 205 4.3 11.3 0.00 0.00 0.00 69 1009.9
20260505011503 63 191 5.2 12.2 0.00 0.00 0.00 65 1010.0
20260505010114 64 193 4.3 11.3 0.00 0.00 0.00 64 1010.0